If you wish to contribute or participate in the discussions about articles you are invited to join SKYbrary as a registered user

 Actions

San Fernando Airport

From SKYbrary Wiki

SADF
Airport
ICAO: SADF
Summary
Name San Fernando Airport
Region South America and Caribbean
Territory Argentina AR.gif
Location San Fernando, Buenos Aires
Serving San Fernando
Elevation 3.048 m
10 ft
10 ft3.048 m
Type medium airport
Coordinates 34° 27' 11.48" S, 58° 35' 22.72" W
Runways
Designator Length Width Surface ROPS
5/23 1801 m5,908.793 ft
30 m98.425 ft
ASP /


METAR
Observation SADF 210300Z 09011KT CAVOK 29/15 Q1013
Station San Fernando, BA
Date/Time 21 November 2019 03:00:00
Wind direction 90°
Wind speed 11 kts
Lowest cloud amount clouds and visibility OK
Temperature 29°C
Dew point 15°C
Humidity 42%
QNH 1013 hPa
Weather condition n/a

Airport located 2km1.08 nm
2,000 m
6,561.68 ft
southwest of San Fernando, Buenos Aires Province, Argentina.

Climatology

Humid Sub-tropical climate (Köppen climate classification Cfa).

Maps

Terrain

Loading map...

Airport Layout

Loading map...


Accidents & Serious Incidents at or in vicinity of SADF

None on SKYbrary